Location: Canyon Rim
(40.8777°N, 111.8641°W)
Time: 20:39:01
(UTC+00:00)

Envisat - Pass Details

Date: 20 April 2021
Orbit: 764 x 766 km, 98.1° (Epoch: 06 May)

Event Time Altitude Azimuth Distance (km) Brightness Sun altitude
Rises 11:56:35 0° 28° (NNE) 3,238 7.2 -8.6°
Reaches altitude 10° 11:59:28 10° 45° (NE) 2,306 6.8 -8.1°
Maximum altitude 12:03:15 21° 93° (E) 1,681 5.8 -7.5°
Drops below altitude 10° 12:06:59 10° 141° (SE) 2,294 5.7 -6.8°
Sets 12:09:50 0° 157° (SSE) 3,215 6.3 -6.3°
